Location: Asar Burnu
(36.5203°N, 30.5523°E)
Time: 20:13:34
(UTC+00:00)

ADEOS II - Pass Details

Date: 04 August 2024
Orbit: 795 x 798 km, 98.7° (Epoch: 14 September)

Event Time Altitude Azimuth Distance (km) Brightness Sun altitude
Rises 22:54:49 0° 37° (NE) 3,307 6.2 -35.2°
Reaches altitude 10° 22:58:32 10° 64° (ENE) 2,370 4.9 -35.0°
Enters shadow 23:00:20 13° 84° (E) 2,165 4.5 -34.9°
